[[[{"header":{"parameterUnit":"kt","parameterCategory":2,"dx":1,"dy":1,"la1":30.253999710083008,"la2":30.299108505249023,"lo1":-89.0895004272461,"lo2":-89.04439544677734,"nx":28,"ny":28,"refTime":"2022-10-21T21:00:00:Z","depth":"0","parameterNumber":2,"parameterNumberName":"U-component_of_CURRENTS"},"data":[0.0457,0.0352,0.0193,0.0076,-0.0098,-0.0226,-0.0316,-0.0433,-0.0613,-0.0924,-0.1249,-0.1594,-0.1784,-0.2053,-0.1978,-0.1886,-0.1828,-0.1824,-0.2069,-0.1814,-0.1821,-0.1828,-0.1648,-0.1767,-0.1767,-0.1677,-0.1677,-0.1677,0.0342,0.0168,0.0038,-0.0299,-0.0404,-0.0628,-0.0752,-0.0793,-0.087,-0.1102,-0.1302,-0.1688,-0.1825,-0.2035,-0.2092,-0.2113,-0.1907,-0.216,-0.1842,-0.1793,-0.1827,-0.1642,-0.1761,-0.1761,-0.1761,-0.1761,-0.1761,-0.1761,-0.0001,-0.0045,-0.0416,-0.062,-0.0788,-0.0929,-0.0947,-0.1057,-0.113,-0.1217,-0.1431,-0.1634,-0.1822,-0.2335,-0.2472,-0.2467,-0.2532,-0.2303,-0.2371,-0.2395,-0.2209,-0.2407,-0.2644,-0.2649,-0.2652,-0.2656,-0.2659,0,-0.038,-0.0625,-0.0743,-0.103,-0.1146,-0.1238,-0.1294,-0.1325,-0.1414,-0.1477,-0.1541,-0.164,-0.1951,-0.2063,-0.2567,-0.2638,-0.2471,-0.2636,-0.262,-0.178,-0.1841,-0.1781,-0.1789,-0.1956,-0.1957,-0.1957,-0.1958,-0.1958,-0.0884,-0.0934,-0.1285,-0.1372,-0.1411,-0.1469,-0.149,-0.1598,-0.1585,-0.1636,-0.1587,-0.1773,-0.1838,-0.2259,-0.2328,-0.2656,-0.2604,-0.2631,-0.2245,-0.2308,-0.2365,-0.2362,-0.2286,-0.1964,-0.1964,-0.1963,-0.1962,0,-0.1149,-0.135,-0.1379,-0.1566,-0.1619,-0.1605,-0.1661,-0.1649,-0.1694,-0.1641,-0.1635,-0.1639,-0.1786,-0.1941,-0.2034,-0.2086,-0.2237,-0.239,-0.2121,-0.2116,-0.2241,-0.2273,-0.2564,-0.251,-0.2729,-0.2736,-0.2742,0,-0.1471,-0.1424,-0.1658,-0.1648,-0.1681,-0.1689,-0.1686,-0.1673,-0.1676,-0.1631,-0.1626,-0.1589,-0.1527,-0.1649,-0.1697,-0.1913,-0.1831,-0.1892,-0.193,-0.1571,-0.1564,-0.1596,-0.1619,-0.1618,-0.1615,-0.1611,-0.1608,0,-0.1568,-0.1613,-0.1663,-0.1654,-0.1672,-0.1676,-0.1671,-0.1641,-0.1625,-0.1603,-0.1592,-0.155,-0.1495,-0.1524,-0.1571,-0.1437,-0.1693,-0.1488,-0.1794,-0.1817,-0.1605,-0.1607,-0.1617,-0.1603,-0.1602,-0.1601,-0.1599,0,-0.1629,-0.1674,-0.1706,-0.1694,-0.1681,-0.167,-0.1641,-0.1622,-0.1581,-0.1554,-0.1502,-0.1438,-0.1383,-0.1289,-0.1327,-0.1247,-0.1317,-0.1309,-0.1324,-0.1567,-0.1553,-0.1639,-0.1628,-0.1583,-0.1557,-0.1554,-0.1551,0,-0.1698,-0.1725,-0.1689,-0.1669,-0.1646,-0.1595,-0.1585,-0.1543,-0.1502,-0.1476,-0.1372,-0.1316,-0.1235,-0.1191,-0.1151,-0.1098,-0.1182,-0.1038,-0.1313,-0.1327,-0.1539,-0.1556,-0.1193,-0.1584,-0.1515,-0.1519,-0.1522,0,-0.1688,-0.1677,-0.1661,-0.1645,-0.1571,-0.1547,-0.1531,-0.1483,-0.1479,-0.1402,-0.1386,-0.1248,-0.1205,-0.1191,-0.1116,-0.1094,-0.1141,-0.1104,-0.1106,-0.1354,-0.1299,-0.149,-0.1535,-0.1024,-0.1025,-0.1025,-0.1493,0,-0.1663,-0.1645,-0.1644,-0.1583,-0.1557,-0.1533,-0.1465,-0.1447,-0.1403,-0.1358,-0.1295,-0.1215,-0.1188,-0.112,-0.1097,-0.1056,-0.1172,-0.1077,-0.1199,-0.1109,-0.1333,-0.1355,-0.1128,-0.113,-0.1132,-0.1134,0,0,-0.1635,-0.1607,-0.1554,-0.1531,-0.1503,-0.1435,-0.142,-0.1386,-0.1337,-0.1327,-0.1302,-0.1227,-0.1216,-0.1172,-0.1097,-0.1089,-0.1189,-0.1236,-0.1125,-0.1123,-0.1122,-0.133,-0.1349,-0.1137,-0.1137,-0.1138,-0.1139,0,-0.1583,-0.1555,-0.1554,-0.1512,-0.1455,-0.1413,-0.1408,-0.1343,-0.1318,-0.1301,-0.1248,-0.1192,-0.1251,-0.1206,-0.1201,-0.1115,-0.1289,-0.1115,-0.1153,-0.1138,-0.1134,-0.1131,-0.1334,-0.135,-0.1143,-0.1143,-0.1142,0,-0.1523,-0.1484,-0.1481,-0.1429,-0.1394,-0.1368,-0.1325,-0.1303,-0.1283,-0.1299,-0.1301,-0.1262,-0.1276,-0.1263,-0.1278,-0.1337,-0.141,-0.1356,-0.1345,-0.1426,-0.142,-0.1412,-0.1406,-0.1502,-0.1504,-0.1505,0,0,-0.1484,-0.1473,-0.1405,-0.1413,-0.1391,-0.1335,-0.1319,-0.1286,-0.1263,-0.1257,-0.1291,-0.1306,-0.129,-0.1339,-0.1347,-0.1402,-0.1504,-0.14,-0.1383,-0.1369,-0.144,-0.1431,-0.1422,-0.1509,-0.1509,-0.151,0,0,-0.1466,-0.1398,-0.1372,-0.1377,-0.1333,-0.1273,-0.1277,-0.1245,-0.1236,-0.124,-0.1288,-0.1306,-0.1309,-0.1377,-0.1422,-0.1407,-0.1472,-0.1467,-0.1396,-0.1376,-0.1359,-0.1435,-0.1521,0,0,0,0,0,-0.1383,-0.1403,-0.1381,-0.1374,-0.132,-0.1282,-0.1274,-0.1236,-0.1223,-0.1222,-0.1217,-0.1312,-0.1363,-0.1405,-0.1437,-0.1434,-0.1569,-0.1558,-0.1548,-0.1463,-0.1441,-0.1422,0,0,0,0,0,0,-0.1379,-0.1371,-0.138,-0.1323,-0.131,-0.1282,-0.1249,-0.1239,-0.1222,-0.1218,-0.1295,-0.1315,-0.1355,-0.1399,-0.1426,-0.142,-0.1513,-0.1564,-0.1556,-0.1548,-0.1456,-0.1437,-0.1422,0,0,0,0,0,-0.1376,-0.1369,-0.1298,-0.1322,-0.1311,-0.126,-0.1249,-0.124,-0.1228,-0.1291,-0.1304,-0.1201,-0.1354,-0.1381,-0.1416,-0.1405,-0.1495,-0.1505,-0.1559,-0.1552,-0.1545,-0.1447,0,0,0,0,0,0,-0.1374,-0.1359,-0.1294,-0.1289,-0.1319,-0.126,-0.1251,-0.1242,-0.1306,-0.1312,-0.1203,-0.1201,-0.1353,-0.1375,-0.1396,-0.1391,-0.1481,-0.1491,-0.1497,-0.1553,-0.1548,-0.1543,0,0,0,0,0,0,-0.1363,-0.1356,-0.1292,-0.1291,-0.1285,-0.1261,-0.1253,-0.1353,-0.1315,-0.1217,-0.1213,-0.1203,-0.1386,-0.137,-0.1387,-0.1538,-0.147,-0.148,-0.1486,-0.149,-0.1549,-0.1544,0,0,0,0,0,0,-0.1359,-0.1352,-0.1292,-0.1288,-0.1283,-0.1221,-0.1357,-0.1345,-0.1183,-0.1221,-0.1182,-0.1181,-0.1387,-0.1399,-0.138,-0.1524,-0.1535,-0.1471,-0.1477,-0.1481,-0.1484,0,0,0,0,0,0,0,-0.1356,-0.141,-0.1325,-0.1285,-0.1281,-0.124,-0.1238,-0.1237,-0.1183,-0.1183,-0.1182,-0.1182,-0.1419,-0.1429,-0.1439,-0.1513,0,0,-0.147,-0.1474,0,0,0,0,0,0,0,0,-0.1412,-0.1411,-0.1325,-0.1324,-0.1323,-0.1239,-0.1238,-0.1237,-0.1183,-0.1183,-0.1182,-0.1182,-0.1421,-0.1429,-0.1438,0,0,0,0,0,0,0,0,0,0,0,0,0,0,0,-0.1325,-0.1324,0,-0.1239,-0.1238,-0.1237,-0.1183,-0.1183,-0.1182,-0.1182,-0.1424,-0.143,-0.1437,0,0,0,0,0,0,0,0,0,0,0,0,0,0,0,0,0,0,0,0,0,0,0,0,0,0,0,0,0,0,0,0,0,0,0,0,0,0,0,0,0,0,0,0,0,0,0,0,0,0,0,0,0,0,0,0,0,0,0,0,0,0,0,0,0,0,0,0,0]}],[{"header":{"parameterUnit":"kt","parameterCategory":2,"dx":1,"dy":1,"la1":30.253999710083008,"la2":30.299108505249023,"lo1":-89.0895004272461,"lo2":-89.04439544677734,"nx":28,"ny":28,"refTime":"2022-10-21T21:00:00:Z","depth":"0","parameterNumber":3,"parameterNumberName":"V-component_of_CURRENTS"},"data":[0.0088,-0.0051,-0.0173,-0.036,-0.0495,-0.0634,-0.0669,-0.0704,-0.0715,-0.0572,-0.0375,-0.0287,0.0583,0.1934,0.2732,0.2833,0.3023,0.3029,0.3166,0.2734,0.2676,0.2621,0.2638,0.3173,0.3174,0.3585,0.359,0.3593,0.0057,-0.0061,-0.0217,-0.048,-0.0606,-0.0734,-0.0816,-0.0835,-0.0764,-0.0725,-0.0651,-0.0097,0.0509,0.1088,0.2025,0.2394,0.2409,0.2527,0.2454,0.2507,0.2021,0.2026,0.2439,0.2439,0.2439,0.2439,0.2439,0.2438,-0.0044,-0.0111,-0.0362,-0.0559,-0.0713,-0.0833,-0.0865,-0.0901,-0.0858,-0.0732,-0.0673,-0.0532,0.0052,0.0765,0.1086,0.1764,0.1666,0.1932,0.1964,0.1951,0.2074,0.1543,0.1885,0.1884,0.1884,0.1884,0.1883,0,-0.0188,-0.0308,-0.0448,-0.0691,-0.0811,-0.0927,-0.0988,-0.0974,-0.0933,-0.0853,-0.0718,-0.0636,-0.021,0.0196,0.0749,0.1001,0.1305,0.1287,0.1448,0.1517,0.1546,0.1653,0.0973,0.1259,0.1255,0.1252,0.125,0.1248,-0.0361,-0.0431,-0.0702,-0.08,-0.0875,-0.0962,-0.1013,-0.1037,-0.1009,-0.0866,-0.0802,-0.0598,-0.0463,0.0012,0.0432,0.0826,0.0923,0.1172,0.1136,0.1311,0.1368,0.136,0.1435,0.1205,0.121,0.1215,0.1219,0,-0.0422,-0.0611,-0.0715,-0.0903,-0.0958,-0.0985,-0.1041,-0.1038,-0.0986,-0.0883,-0.0843,-0.0709,-0.0474,-0.0247,0.0039,0.0284,0.0707,0.0713,0.0696,0.0733,0.1198,0.1227,0.1615,0.1743,0.11,0.1106,0.1111,0,-0.0573,-0.0615,-0.0858,-0.0904,-0.0979,-0.1005,-0.1015,-0.0987,-0.094,-0.0869,-0.0778,-0.0682,-0.0495,-0.0302,-0.0115,0.0244,0.016,0.0481,0.0518,0.0492,0.0505,0.0691,0.0725,0.0318,0.0316,0.0315,0.0313,0,-0.061,-0.0726,-0.085,-0.0872,-0.0956,-0.0967,-0.0973,-0.0922,-0.0896,-0.0809,-0.0756,-0.0619,-0.0522,-0.0348,-0.0114,-0.0156,0.0149,0.0099,0.0412,0.0424,0.0487,0.0502,0.0837,0.0311,0.0311,0.031,0.0309,0,-0.0653,-0.0757,-0.0866,-0.0929,-0.0934,-0.0941,-0.0923,-0.0907,-0.0829,-0.0784,-0.0687,-0.0613,-0.0468,-0.042,-0.0183,-0.0265,-0.0123,-0.0028,-0.0019,0.0168,0.0147,0.0325,0.0501,0.0668,0.0069,0.0067,0.0064,0,-0.0692,-0.0809,-0.0819,-0.0856,-0.089,-0.086,-0.0852,-0.0816,-0.0766,-0.0725,-0.0613,-0.0558,-0.0488,-0.0449,-0.0352,-0.0259,-0.0143,-0.025,-0.008,-0.0073,0.0069,0.0221,0.0234,0.0448,0.0032,0.0035,0.0038,0,-0.0682,-0.0792,-0.0782,-0.0816,-0.0803,-0.0806,-0.0787,-0.0759,-0.0746,-0.0674,-0.0642,-0.0536,-0.0484,-0.0453,-0.0408,-0.0324,-0.0194,-0.0313,-0.031,-0.0238,-0.0028,0.0152,0.0191,-0.0215,-0.0212,-0.0209,0.0012,0,-0.0746,-0.0764,-0.0775,-0.0783,-0.0778,-0.0781,-0.075,-0.0733,-0.0703,-0.0671,-0.061,-0.0564,-0.0516,-0.0468,-0.0464,-0.036,-0.0352,-0.0374,-0.0387,-0.0332,-0.0241,-0.0221,-0.0463,-0.0463,-0.0463,-0.0463,0,0,-0.0708,-0.0737,-0.0725,-0.074,-0.074,-0.0704,-0.0715,-0.0694,-0.0685,-0.0674,-0.0668,-0.0591,-0.0563,-0.0512,-0.0484,-0.0482,-0.0441,-0.047,-0.0365,-0.0354,-0.0344,-0.0256,-0.0236,-0.0463,-0.0463,-0.0463,-0.0463,0,-0.071,-0.0707,-0.0725,-0.0719,-0.0708,-0.0696,-0.0693,-0.0676,-0.0668,-0.0665,-0.0657,-0.0616,-0.0599,-0.0562,-0.0542,-0.0497,-0.0448,-0.0468,-0.0437,-0.0369,-0.0358,-0.0348,-0.026,-0.0242,-0.0464,-0.0464,-0.0464,0,-0.0686,-0.0689,-0.0692,-0.0688,-0.0681,-0.0682,-0.0668,-0.0665,-0.066,-0.0673,-0.0678,-0.0657,-0.0635,-0.0607,-0.0592,-0.0599,-0.0466,-0.0526,-0.0524,-0.0508,-0.0438,-0.0425,-0.0415,-0.0556,-0.0556,-0.0557,0,0,-0.0683,-0.0695,-0.0677,-0.0683,-0.068,-0.0664,-0.0661,-0.0658,-0.0668,-0.0677,-0.0675,-0.0663,-0.0643,-0.064,-0.0623,-0.0599,-0.0556,-0.0539,-0.0535,-0.0531,-0.0514,-0.0444,-0.0432,-0.0559,-0.0559,-0.0559,0,0,-0.068,-0.0676,-0.0667,-0.0678,-0.0664,-0.0654,-0.0661,-0.0651,-0.0671,-0.068,-0.0682,-0.0686,-0.067,-0.066,-0.0691,-0.059,-0.0604,-0.0599,-0.061,-0.0604,-0.06,-0.0586,-0.0667,0,0,0,0,0,-0.066,-0.0673,-0.0664,-0.0663,-0.0657,-0.0649,-0.0648,-0.0653,-0.0653,-0.066,-0.0686,-0.0664,-0.0671,-0.0701,-0.0697,-0.0635,-0.0584,-0.058,-0.0576,-0.0582,-0.0576,-0.0571,0,0,0,0,0,0,-0.0659,-0.0658,-0.0663,-0.0653,-0.0651,-0.0649,-0.0655,-0.0657,-0.0654,-0.0657,-0.0662,-0.0664,-0.0669,-0.07,-0.0697,-0.0637,-0.0668,-0.0583,-0.0579,-0.0575,-0.058,-0.0575,-0.0571,0,0,0,0,0,-0.0658,-0.0658,-0.0653,-0.0652,-0.0651,-0.0652,-0.0657,-0.0658,-0.0662,-0.066,-0.0662,-0.0667,-0.0668,-0.0667,-0.0698,-0.0638,-0.0669,-0.0668,-0.058,-0.0577,-0.0574,-0.0578,0,0,0,0,0,0,-0.0658,-0.066,-0.0652,-0.0651,-0.0662,-0.0653,-0.0654,-0.0659,-0.0665,-0.0666,-0.0664,-0.0666,-0.0667,-0.0667,-0.0666,-0.0638,-0.067,-0.067,-0.0669,-0.0578,-0.0575,-0.0573,0,0,0,0,0,0,-0.066,-0.066,-0.0652,-0.0664,-0.0664,-0.0654,-0.0655,-0.0644,-0.0665,-0.067,-0.0671,-0.0665,-0.0669,-0.0666,-0.0666,-0.0647,-0.0671,-0.0671,-0.067,-0.067,-0.0576,-0.0574,0,0,0,0,0,0,-0.066,-0.0659,-0.0664,-0.0665,-0.0665,-0.0655,-0.0644,-0.0641,-0.0668,-0.067,-0.0671,-0.0672,-0.0668,-0.0668,-0.0665,-0.0646,-0.0647,-0.0671,-0.0671,-0.067,-0.067,0,0,0,0,0,0,0,-0.0659,-0.0666,-0.0656,-0.0665,-0.0666,-0.0639,-0.0639,-0.0639,-0.0668,-0.0669,-0.067,-0.0671,-0.0676,-0.0675,-0.0674,-0.0646,0,0,-0.0671,-0.0671,0,0,0,0,0,0,0,0,-0.0666,-0.0666,-0.0655,-0.0655,-0.0655,-0.0639,-0.0639,-0.0639,-0.0668,-0.0669,-0.067,-0.0671,-0.0676,-0.0675,-0.0674,0,0,0,0,0,0,0,0,0,0,0,0,0,0,0,-0.0655,-0.0655,0,-0.0639,-0.0639,-0.0639,-0.0668,-0.0669,-0.067,-0.0671,-0.0675,-0.0675,-0.0674,0,0,0,0,0,0,0,0,0,0,0,0,0,0,0,0,0,0,0,0,0,0,0,0,0,0,0,0,0,0,0,0,0,0,0,0,0,0,0,0,0,0,0,0,0,0,0,0,0,0,0,0,0,0,0,0,0,0,0,0,0,0,0,0,0,0,0,0,0]}]],[[{"header":{"parameterUnit":"kt","parameterCategory":2,"dx":1,"dy":1,"la1":30.253999710083008,"la2":30.299108505249023,"lo1":-89.0895004272461,"lo2":-89.04439544677734,"nx":28,"ny":28,"refTime":"2022-10-21T21:00:00:Z","depth":"2","parameterNumber":2,"parameterNumberName":"U-component_of_CURRENTS"},"data":[-0.125,-0.1088,-0.0964,-0.0729,-0.0622,-0.0572,-0.0601,-0.0752,-0.092,-0.1233,-0.1387,-0.1721,-0.1723,-0.1409,-0.1356,-0.1192,-0.1234,-0.1144,-0.2031,-0.15,-0.1515,-0.1558,-0.145,0,0,0,0,0,-0.1247,-0.1065,-0.0942,-0.0868,-0.0787,-0.0828,-0.0908,-0.0993,-0.1146,-0.1392,-0.1654,-0.1678,-0.1738,-0.1844,-0.1652,-0.1726,-0.1468,-0.1758,-0.1297,-0.1319,-0.1337,-0.1248,-0.1132,-0.113,-0.1128,-0.1126,0,0,-0.1232,-0.1146,-0.1073,-0.1026,-0.1012,-0.1026,-0.1055,-0.121,-0.1326,-0.1518,-0.1744,-0.1929,-0.1964,-0.222,-0.2239,-0.2213,-0.2341,-0.2189,-0.2175,-0.2168,-0.214,-0.2294,-0.2252,-0.2257,-0.2261,-0.2265,-0.2269,0,-0.1309,-0.1256,-0.1272,-0.1218,-0.1239,-0.1307,-0.1397,-0.1421,-0.1616,-0.1682,-0.1832,-0.1962,-0.2173,-0.2169,-0.2492,-0.2499,-0.2321,-0.2375,-0.2729,-0.1643,-0.1783,-0.1763,-0.178,-0.164,-0.1642,-0.1643,-0.1644,-0.1644,-0.1376,-0.1367,-0.1449,-0.1445,-0.1538,-0.1585,-0.1625,-0.1802,-0.1822,-0.1939,-0.1898,-0.2038,-0.2179,-0.2405,-0.2402,-0.2554,-0.2637,-0.2397,-0.2135,-0.2578,-0.2563,-0.256,-0.2559,-0.1663,-0.1661,-0.1659,-0.1657,0,-0.1396,-0.154,-0.1613,-0.1786,-0.1828,-0.1812,-0.1995,-0.1968,-0.2028,-0.1982,-0.195,-0.2044,-0.2138,-0.227,-0.2196,-0.2261,-0.2299,-0.2406,-0.2155,-0.2115,-0.2509,-0.2518,-0.2539,-0.2548,-0.2556,-0.2562,-0.2568,0,-0.1602,-0.1659,-0.1871,-0.1912,-0.1921,-0.2148,-0.2119,-0.2182,-0.2209,-0.2181,-0.2212,-0.2179,-0.209,-0.2146,-0.2156,-0.227,-0.2097,-0.2234,-0.2223,-0.1856,-0.1856,-0.1884,-0.1888,-0.1845,-0.1844,-0.1844,-0.1843,0,-0.1705,-0.1957,-0.2007,-0.2093,-0.2352,-0.236,-0.2446,-0.249,-0.2498,-0.241,-0.2361,-0.2272,-0.2187,-0.2103,-0.2189,-0.2098,-0.2097,-0.1921,-0.2186,-0.2211,-0.1788,-0.1784,-0.1842,-0.1842,-0.1841,-0.1841,-0.1841,0,-0.1969,-0.2093,-0.2199,-0.2416,-0.2457,-0.2528,-0.2548,-0.2617,-0.2598,-0.2575,-0.2504,-0.2441,-0.2351,-0.2354,-0.2222,-0.2223,-0.2195,-0.2137,-0.2135,-0.2294,-0.2294,-0.2046,-0.2002,-0.2197,-0.2199,-0.22,-0.2201,0,-0.2012,-0.2177,-0.2374,-0.2487,-0.2579,-0.2728,-0.2774,-0.2831,-0.2832,-0.2764,-0.2699,-0.2562,-0.2615,-0.2494,-0.2436,-0.2261,-0.2257,-0.2295,-0.2067,-0.2065,-0.2321,-0.2352,-0.1949,-0.2029,-0.2218,-0.2217,-0.2215,0,-0.2054,-0.2386,-0.2384,-0.2464,-0.2691,-0.2756,-0.2831,-0.2892,-0.284,-0.2883,-0.2777,-0.2684,-0.2615,-0.252,-0.2427,-0.2341,-0.2305,-0.2258,-0.2246,-0.2356,-0.2097,-0.2352,-0.2366,-0.2126,-0.2121,-0.2118,-0.2229,0,-0.2276,-0.2381,-0.2426,-0.2601,-0.2695,-0.2772,-0.2903,-0.2926,-0.2921,-0.294,-0.2811,-0.2716,-0.2556,-0.253,-0.2468,-0.2325,-0.2336,-0.2218,-0.219,-0.2165,-0.2229,-0.222,-0.2302,-0.2299,-0.2297,-0.2296,0,0,-0.2232,-0.2367,-0.25,-0.2611,-0.2676,-0.2777,-0.2849,-0.2901,-0.2942,-0.2895,-0.2889,-0.2657,-0.2564,-0.2408,-0.241,-0.2355,-0.2301,-0.2332,-0.2186,-0.2175,-0.2164,-0.2223,-0.2215,-0.2292,-0.2291,-0.229,-0.229,0,-0.2324,-0.2408,-0.2473,-0.2585,-0.272,-0.2795,-0.2815,-0.2929,-0.2921,-0.2908,-0.2791,-0.2684,-0.2545,-0.2451,-0.2372,-0.2338,-0.2253,-0.2279,-0.2325,-0.2174,-0.2166,-0.2158,-0.2216,-0.221,-0.2285,-0.2285,-0.2285,0,-0.2357,-0.2469,-0.2502,-0.2676,-0.2735,-0.2835,-0.284,-0.291,-0.2945,-0.2823,-0.2776,-0.2668,-0.2515,-0.2427,-0.2364,-0.235,-0.2223,-0.2246,-0.2253,-0.2239,-0.2079,-0.207,-0.2062,-0.2165,-0.2165,-0.2166,0,0,-0.2409,-0.2488,-0.2651,-0.27,-0.2756,-0.2832,-0.2869,-0.2898,-0.2888,-0.286,-0.2782,-0.2652,-0.2536,-0.2466,-0.2366,-0.2288,-0.2231,-0.2241,-0.2246,-0.2252,-0.2242,-0.2084,-0.2075,-0.2168,-0.2168,-0.2168,0,0,-0.2419,-0.2601,-0.2619,-0.2705,-0.2805,-0.2917,-0.2924,-0.2942,-0.2881,-0.2825,-0.2721,-0.2683,-0.2562,-0.2481,-0.2521,-0.2353,-0.2316,-0.2306,-0.2439,-0.2444,-0.2449,-0.2468,-0.2448,0,0,0,0,0,-0.2554,-0.2598,-0.2614,-0.2643,-0.2792,-0.2925,-0.2939,-0.2949,-0.2896,-0.2916,-0.2798,-0.2729,-0.2476,-0.251,-0.2481,-0.2456,-0.2193,-0.2189,-0.2184,-0.2333,-0.2339,-0.2345,0,0,0,0,0,0,-0.2567,-0.2605,-0.2613,-0.2734,-0.2768,-0.2922,-0.2874,-0.2878,-0.2893,-0.2885,-0.2759,-0.2728,-0.2657,-0.2518,-0.2493,-0.2472,-0.2456,-0.2191,-0.2187,-0.2184,-0.2335,-0.234,-0.2345,0,0,0,0,0,-0.2578,-0.2608,-0.2842,-0.2731,-0.276,-0.2806,-0.2869,-0.2872,-0.2861,-0.2783,-0.2755,-0.2863,-0.2662,-0.2629,-0.2503,-0.2485,-0.2472,-0.2463,-0.2189,-0.2186,-0.2183,-0.2338,0,0,0,0,0,0,-0.2585,-0.259,-0.2848,-0.2857,-0.2694,-0.2794,-0.281,-0.2867,-0.275,-0.2736,-0.288,-0.2874,-0.2666,-0.264,-0.2615,-0.2495,-0.2486,-0.2476,-0.2471,-0.2187,-0.2184,-0.2182,0,0,0,0,0,0,-0.2575,-0.2598,-0.2852,-0.2805,-0.2808,-0.2784,-0.2798,-0.2717,-0.2739,-0.2848,-0.2846,-0.2877,-0.2622,-0.2648,-0.2628,-0.2509,-0.2496,-0.2487,-0.2481,-0.2477,-0.2185,-0.2183,0,0,0,0,0,0,-0.2585,-0.2604,-0.2802,-0.2804,-0.2807,-0.2901,-0.2699,-0.2792,-0.2885,-0.2844,-0.2875,-0.2871,-0.2626,-0.261,-0.2638,-0.2528,-0.2514,-0.2496,-0.249,-0.2486,-0.2483,0,0,0,0,0,0,0,-0.2592,-0.2463,-0.2807,-0.2804,-0.2806,-0.2944,-0.2945,-0.2946,-0.2884,-0.288,-0.2876,-0.2873,-0.2545,-0.2536,-0.2526,-0.2544,0,0,-0.2497,-0.2492,0,0,0,0,0,0,0,0,-0.2455,-0.2461,-0.2807,-0.281,-0.2812,-0.2944,-0.2945,-0.2946,-0.2883,-0.288,-0.2877,-0.2874,-0.2543,-0.2535,-0.2527,0,0,0,0,0,0,0,0,0,0,0,0,0,0,0,-0.2808,-0.281,0,-0.2944,-0.2945,-0.2946,-0.2883,-0.288,-0.2878,-0.2875,-0.2541,-0.2534,-0.2528,0,0,0,0,0,0,0,0,0,0,0,0,0,0,0,0,0,0,0,0,0,0,0,0,0,0,0,0,0,0,0,0,0,0,0,0,0,0,0,0,0,0,0,0,0,0,0,0,0,0,0,0,0,0,0,0,0,0,0,0,0,0,0,0,0,0,0,0,0]}],[{"header":{"parameterUnit":"kt","parameterCategory":2,"dx":1,"dy":1,"la1":30.253999710083008,"la2":30.299108505249023,"lo1":-89.0895004272461,"lo2":-89.04439544677734,"nx":28,"ny":28,"refTime":"2022-10-21T21:00:00:Z","depth":"2","parameterNumber":3,"parameterNumberName":"V-component_of_CURRENTS"},"data":[-0.1828,-0.1821,-0.1762,-0.1743,-0.1672,-0.165,-0.1608,-0.1516,-0.1373,-0.115,-0.0945,-0.0693,-0.0219,0.0099,0.0441,0.0662,0.0674,0.068,0.0876,0.0523,0.0516,0.0763,0.0584,0,0,0,0,0,-0.177,-0.1701,-0.1656,-0.1544,-0.1519,-0.1404,-0.1324,-0.1304,-0.1227,-0.1029,-0.089,-0.0506,-0.0161,0.0201,0.0648,0.1001,0.0884,0.1098,0.0845,0.084,0.0836,0.0726,0.0881,0.0882,0.0883,0.0883,0,0,-0.1594,-0.1593,-0.1442,-0.1379,-0.131,-0.1245,-0.1244,-0.1133,-0.1059,-0.0902,-0.0752,-0.056,-0.0242,0.0324,0.0637,0.0954,0.0969,0.1081,0.1068,0.1058,0.097,0.094,0.1182,0.1185,0.1186,0.1188,0.1189,0,-0.1387,-0.131,-0.125,-0.1149,-0.112,-0.1065,-0.1009,-0.0984,-0.0801,-0.0724,-0.0598,-0.0491,-0.0147,0.0117,0.0595,0.0769,0.0903,0.0995,0.1057,0.0607,0.0565,0.052,0.0493,0.0751,0.0751,0.0751,0.075,0.075,-0.1137,-0.1124,-0.0959,-0.0928,-0.0888,-0.086,-0.0832,-0.069,-0.0648,-0.0466,-0.046,-0.0286,-0.0186,0.0212,0.0471,0.0812,0.0803,0.0966,0.087,0.0877,0.0841,0.0804,0.077,0.0748,0.0748,0.0748,0.0748,0,-0.0996,-0.0865,-0.0831,-0.068,-0.0648,-0.0668,-0.0568,-0.0543,-0.0437,-0.0388,-0.0373,-0.0232,-0.008,0.01,0.0299,0.0467,0.0679,0.0774,0.0562,0.0541,0.0755,0.0727,0.1105,0.1112,0.1117,0.1121,0.1125,0,-0.076,-0.0761,-0.0581,-0.0578,-0.0565,-0.0443,-0.0441,-0.0371,-0.028,-0.0252,-0.0145,-0.013,-0.0033,0.0083,0.0187,0.0394,0.0368,0.0512,0.0516,0.0316,0.0305,0.0216,0.0188,0.0429,0.0427,0.0425,0.0423,0,-0.065,-0.0528,-0.0503,-0.0469,-0.0333,-0.0332,-0.0291,-0.0213,-0.02,-0.0117,-0.0111,-0.0028,-0.0079,0.0068,0.0089,0.003,0.0274,0.0189,0.0397,0.0403,0.0295,0.0285,0.042,0.042,0.0419,0.0418,0.0417,0,-0.0491,-0.0415,-0.0386,-0.0264,-0.0249,-0.0247,-0.0191,-0.0176,-0.0108,-0.0117,-0.0099,-0.0136,-0.0098,-0.0165,-0.0036,-0.0145,-0.0073,-0.0052,-0.0043,0.0051,-0.0055,0.0084,0.02,0.0022,0.0018,0.0014,0.0011,0,-0.0408,-0.0341,-0.0254,-0.0239,-0.0206,-0.0142,-0.0131,-0.0108,-0.0118,-0.0119,-0.0152,-0.0237,-0.0309,-0.0385,-0.031,-0.0364,-0.0228,-0.0378,-0.0211,-0.0204,-0.0058,0.0068,-0.0116,0.0137,-0.0038,-0.0033,-0.0029,0,-0.0347,-0.0196,-0.0207,-0.0172,-0.0108,-0.0097,-0.0096,-0.007,-0.0067,-0.0158,-0.0155,-0.0325,-0.0356,-0.0424,-0.0524,-0.0456,-0.0309,-0.0522,-0.052,-0.0327,-0.0102,-0.0013,0.0029,-0.037,-0.0365,-0.0361,-0.0068,0,-0.0202,-0.0161,-0.0157,-0.0089,-0.0075,-0.008,-0.0041,-0.0079,-0.0142,-0.0154,-0.0262,-0.041,-0.0517,-0.0579,-0.0675,-0.0625,-0.063,-0.0696,-0.0633,-0.0621,-0.0509,-0.0478,-0.0861,-0.0863,-0.0864,-0.0865,0,0,-0.0178,-0.0112,-0.0049,-0.002,-0.0008,0.0003,0.0005,-0.0022,-0.0125,-0.0151,-0.0229,-0.0465,-0.058,-0.0646,-0.0688,-0.0793,-0.0745,-0.0737,-0.0687,-0.0668,-0.065,-0.0537,-0.0506,-0.0867,-0.0867,-0.0868,-0.0868,0,-0.0104,-0.0052,-0.0036,-0.0008,0.0014,0.0025,0.0019,-0.0001,-0.0047,-0.0182,-0.0279,-0.0389,-0.0612,-0.0649,-0.0709,-0.081,-0.0745,-0.0884,-0.0779,-0.0701,-0.068,-0.0662,-0.0547,-0.0518,-0.0871,-0.0871,-0.087,0,-0.005,0.0014,0.0027,0.0097,0.0085,0.0097,0.0086,0.0053,0.0032,-0.0103,-0.0246,-0.037,-0.0506,-0.0633,-0.0704,-0.0692,-0.0715,-0.0805,-0.0804,-0.0731,-0.0646,-0.0626,-0.0608,-0.0813,-0.0812,-0.0811,0,0,-0.0004,0.0035,0.0109,0.0118,0.0131,0.011,0.0084,0.0065,-0.0022,-0.0087,-0.0197,-0.0339,-0.0459,-0.0531,-0.0653,-0.0773,-0.0703,-0.0789,-0.0792,-0.0794,-0.0723,-0.064,-0.0623,-0.0807,-0.0807,-0.0806,0,0,0.0003,0.0111,0.0122,0.0159,0.0167,0.0164,0.0112,0.009,-0.0058,-0.0109,-0.0204,-0.0244,-0.0403,-0.0474,-0.0414,-0.0594,-0.0596,-0.0612,-0.0507,-0.0513,-0.0516,-0.039,-0.0389,0,0,0,0,0,0.0106,0.0119,0.013,0.0144,0.0168,0.0178,0.0164,0.0114,0.0069,0.0035,-0.0124,-0.0121,-0.0465,-0.0415,-0.0447,-0.0441,-0.0754,-0.0763,-0.0772,-0.067,-0.0675,-0.0678,0,0,0,0,0,0,0.0113,0.0135,0.0129,0.0148,0.0151,0.0177,0.0148,0.0131,0.0072,0.0061,-0.0097,-0.0123,-0.0183,-0.0399,-0.0429,-0.042,-0.0379,-0.0758,-0.0766,-0.0773,-0.0672,-0.0675,-0.0678,0,0,0,0,0,0.0117,0.0135,0.021,0.0141,0.0144,0.0094,0.0146,0.0132,0.0052,-0.0031,-0.0059,0.0017,-0.0179,-0.0214,-0.0417,-0.0405,-0.0359,-0.037,-0.0763,-0.0769,-0.0775,-0.0673,0,0,0,0,0,0,0.0121,0.0069,0.0206,0.0201,0.0143,0.0086,0.0085,0.0133,-0.0043,-0.0064,0.0084,0.0078,-0.0178,-0.0205,-0.023,-0.0395,-0.0342,-0.0353,-0.036,-0.0768,-0.0772,-0.0777,0,0,0,0,0,0,0.006,0.0066,0.0202,0.0209,0.0203,0.0079,0.0079,-0.003,-0.0048,0.0075,0.007,0.0083,-0.0158,-0.0198,-0.0219,-0.0388,-0.033,-0.034,-0.0348,-0.0352,-0.0772,-0.0775,0,0,0,0,0,0,0.0059,0.0064,0.0208,0.0204,0.0198,0.0121,-0.0028,-0.0024,0.0034,0.0079,0.0033,0.0032,-0.0152,-0.0173,-0.021,-0.037,-0.0383,-0.033,-0.0337,-0.0342,-0.0346,0,0,0,0,0,0,0,0.0059,0.0069,0.0259,0.02,0.0194,0.0157,0.0153,0.015,0.0034,0.0034,0.0033,0.0033,-0.027,-0.0281,-0.0293,-0.0356,0,0,-0.0329,-0.0334,0,0,0,0,0,0,0,0,0.0062,0.0067,0.0259,0.0259,0.0259,0.0156,0.0153,0.015,0.0034,0.0034,0.0033,0.0033,-0.0273,-0.0282,-0.0292,0,0,0,0,0,0,0,0,0,0,0,0,0,0,0,0.0259,0.0259,0,0.0156,0.0153,0.0151,0.0034,0.0034,0.0033,0.0033,-0.0276,-0.0283,-0.0291,0,0,0,0,0,0,0,0,0,0,0,0,0,0,0,0,0,0,0,0,0,0,0,0,0,0,0,0,0,0,0,0,0,0,0,0,0,0,0,0,0,0,0,0,0,0,0,0,0,0,0,0,0,0,0,0,0,0,0,0,0,0,0,0,0,0,0,0,0]}]],[[{"header":{"parameterUnit":"kt","parameterCategory":2,"dx":1,"dy":1,"la1":30.253999710083008,"la2":30.299108505249023,"lo1":-89.0895004272461,"lo2":-89.04439544677734,"nx":28,"ny":28,"refTime":"2022-10-21T21:00:00:Z","depth":"4","parameterNumber":2,"parameterNumberName":"U-component_of_CURRENTS"},"data":[-0.0931,-0.0974,-0.0984,-0.1038,-0.1126,-0.134,-0.1496,-0.1561,-0.139,-0.1508,-0.146,-0.1707,-0.1651,-0.1823,-0.1671,-0.1688,-0.1819,-0.1857,-0.1852,-0.2173,-0.2202,-0.2228,-0.2157,0,0,0,0,0,-0.098,-0.0969,-0.1101,-0.124,-0.1468,-0.1687,-0.1873,-0.196,-0.2029,-0.1823,-0.1966,-0.1819,-0.1807,-0.1811,-0.1714,-0.189,-0.2018,-0.1771,-0.2035,-0.2191,-0.2223,-0.2143,0,0,0,0,0,0,-0.1064,-0.1084,-0.1181,-0.1421,-0.1705,-0.1835,-0.2031,-0.2012,-0.2113,-0.219,-0.2071,-0.2148,-0.2343,-0.2244,-0.2103,-0.2086,-0.2032,-0.2034,-0.2073,-0.2105,-0.2012,-0.1958,-0.1619,0,0,0,0,0,-0.1099,-0.1209,-0.1275,-0.1519,-0.181,-0.2057,-0.2319,-0.23,-0.2457,-0.2701,-0.2501,-0.2562,-0.2473,-0.2461,-0.2457,-0.2279,-0.2647,-0.2478,-0.2494,-0.2469,-0.2462,-0.2374,-0.2387,-0.2345,-0.2349,-0.2352,-0.2353,0,-0.1178,-0.1207,-0.1454,-0.1597,-0.1793,-0.2141,-0.2351,-0.2661,-0.268,-0.2861,-0.2785,-0.2969,-0.3003,-0.2725,-0.2785,-0.2642,-0.2555,-0.2563,-0.2537,-0.2515,-0.2417,-0.2423,-0.2426,-0.2379,-0.2377,-0.2375,-0.2373,0,-0.1216,-0.1284,-0.1382,-0.1623,-0.1783,-0.1993,-0.2464,-0.2592,-0.2832,-0.2974,-0.309,-0.3265,-0.3188,-0.3289,-0.3197,-0.3088,-0.288,-0.2736,-0.3053,-0.2957,-0.2477,-0.247,-0.2422,-0.2412,-0.2404,-0.2398,-0.2392,0,-0.1276,-0.1335,-0.1507,-0.1554,-0.1784,-0.1985,-0.2315,-0.2485,-0.2766,-0.2843,-0.3123,-0.3157,-0.3392,-0.3399,-0.3287,-0.3054,-0.319,-0.2815,-0.2708,-0.2968,-0.296,-0.2875,-0.2855,-0.3049,-0.3049,-0.305,-0.305,0,-0.132,-0.1409,-0.1496,-0.1543,-0.1725,-0.1964,-0.2149,-0.2419,-0.2575,-0.2869,-0.2965,-0.3183,-0.3347,-0.3291,-0.3239,-0.3229,-0.3152,-0.3078,-0.2746,-0.2726,-0.2868,-0.2848,-0.305,-0.305,-0.305,-0.305,-0.305,0,-0.1388,-0.1391,-0.1491,-0.1653,-0.1698,-0.1867,-0.2149,-0.2295,-0.2551,-0.2657,-0.2881,-0.2977,-0.3204,-0.3132,-0.317,-0.3163,-0.3084,-0.2998,-0.2991,-0.2671,-0.2476,-0.2647,-0.2836,-0.2835,-0.2834,-0.2833,-0.2832,0,-0.1386,-0.1412,-0.1513,-0.1614,-0.1632,-0.1792,-0.1951,-0.2121,-0.2269,-0.2448,-0.2603,-0.2765,-0.2775,-0.2907,-0.296,-0.291,-0.2948,-0.293,-0.2731,-0.2726,-0.2482,-0.2593,-0.2844,-0.2817,-0.2819,-0.282,-0.2821,0,-0.1385,-0.1445,-0.1454,-0.1498,-0.1603,-0.1653,-0.1841,-0.1983,-0.2097,-0.2238,-0.2431,-0.2595,-0.2658,-0.2715,-0.2765,-0.2804,-0.2913,-0.273,-0.2723,-0.2725,-0.2872,-0.2605,-0.2588,-0.283,-0.2833,-0.2835,-0.281,0,-0.1415,-0.1441,-0.145,-0.1491,-0.1564,-0.1595,-0.1698,-0.1798,-0.1891,-0.1948,-0.2147,-0.2216,-0.2354,-0.239,-0.242,-0.2592,-0.2526,-0.2426,-0.2378,-0.2512,-0.2477,-0.2487,-0.2308,-0.2304,-0.23,-0.2297,0,0,-0.1394,-0.1404,-0.1412,-0.1437,-0.1486,-0.1489,-0.1549,-0.1603,-0.1683,-0.1772,-0.1777,-0.1954,-0.2001,-0.2184,-0.228,-0.2251,-0.2217,-0.2342,-0.244,-0.2456,-0.2471,-0.2447,-0.246,-0.2291,-0.2289,-0.2288,-0.2287,0,-0.1381,-0.1388,-0.1403,-0.142,-0.1453,-0.146,-0.1483,-0.1513,-0.1583,-0.1697,-0.1698,-0.1805,-0.1909,-0.1986,-0.2031,-0.2188,-0.2139,-0.2213,-0.2436,-0.2408,-0.243,-0.2448,-0.2429,-0.2444,-0.2278,-0.2279,-0.2279,0,-0.1363,-0.1366,-0.1374,-0.1384,-0.1384,-0.1412,-0.1389,-0.1425,-0.1503,-0.1471,-0.1602,-0.1625,-0.1664,-0.1806,-0.1869,-0.1851,-0.2064,-0.2023,-0.2041,-0.2077,-0.2042,-0.2068,-0.209,-0.18,-0.1799,-0.1799,0,0,-0.1352,-0.1362,-0.1365,-0.1379,-0.1384,-0.1382,-0.139,-0.1409,-0.1435,-0.1452,-0.1506,-0.1567,-0.163,-0.1708,-0.1734,-0.1875,-0.1822,-0.1973,-0.1996,-0.2015,-0.2061,-0.2032,-0.2057,-0.1796,-0.1795,-0.1795,0,0,-0.1341,-0.1343,-0.1349,-0.136,-0.1372,-0.1354,-0.1368,-0.1374,-0.1413,-0.1441,-0.1462,-0.148,-0.16,-0.1605,-0.1561,-0.1786,-0.168,-0.169,-0.184,-0.1868,-0.1889,-0.1939,-0.1552,0,0,0,0,0,-0.133,-0.1341,-0.1347,-0.135,-0.1344,-0.1349,-0.1348,-0.1354,-0.136,-0.1375,-0.1423,-0.1432,-0.1592,-0.1552,-0.1567,-0.1711,-0.1756,-0.1763,-0.177,-0.1988,-0.2017,-0.2041,0,0,0,0,0,0,-0.1331,-0.1332,-0.1347,-0.1328,-0.1328,-0.1347,-0.1333,-0.1333,-0.136,-0.1362,-0.1418,-0.1432,-0.1447,-0.1546,-0.1559,-0.1698,-0.1548,-0.1759,-0.1765,-0.177,-0.1997,-0.2021,-0.2042,0,0,0,0,0,-0.1332,-0.1333,-0.1326,-0.1328,-0.1327,-0.1338,-0.1333,-0.1333,-0.1354,-0.1392,-0.1404,-0.1368,-0.1444,-0.1461,-0.1554,-0.1694,-0.1539,-0.1544,-0.1763,-0.1767,-0.1772,-0.2009,0,0,0,0,0,0,-0.1332,-0.1316,-0.1326,-0.1326,-0.1342,-0.1338,-0.1338,-0.1334,-0.1384,-0.1394,-0.1342,-0.1344,-0.1442,-0.1456,-0.1469,-0.1695,-0.1532,-0.1537,-0.154,-0.1766,-0.177,-0.1773,0,0,0,0,0,0,-0.1316,-0.1315,-0.1325,-0.1344,-0.1345,-0.1338,-0.1338,-0.1385,-0.1388,-0.133,-0.1332,-0.1343,-0.1469,-0.1452,-0.1462,-0.1531,-0.1526,-0.1531,-0.1534,-0.1536,-0.1769,-0.1772,0,0,0,0,0,0,-0.1316,-0.1315,-0.1343,-0.1344,-0.1346,-0.134,-0.1384,-0.1401,-0.1332,-0.133,-0.1336,-0.1338,-0.1468,-0.1475,-0.1458,-0.1521,-0.1529,-0.1526,-0.1529,-0.1532,-0.1533,0,0,0,0,0,0,0,-0.1315,-0.1321,-0.1336,-0.1345,-0.1346,-0.1329,-0.1328,-0.1327,-0.1333,-0.1334,-0.1336,-0.1337,-0.1499,-0.1504,-0.1509,-0.1514,0,0,-0.1526,-0.1528,0,0,0,0,0,0,0,0,-0.1322,-0.1322,-0.1336,-0.1337,-0.1337,-0.1329,-0.1328,-0.1327,-0.1333,-0.1334,-0.1335,-0.1336,-0.1501,-0.1505,-0.1509,0,0,0,0,0,0,0,0,0,0,0,0,0,0,0,-0.1336,-0.1337,0,-0.1329,-0.1328,-0.1327,-0.1333,-0.1334,-0.1335,-0.1336,-0.1502,-0.1505,-0.1509,0,0,0,0,0,0,0,0,0,0,0,0,0,0,0,0,0,0,0,0,0,0,0,0,0,0,0,0,0,0,0,0,0,0,0,0,0,0,0,0,0,0,0,0,0,0,0,0,0,0,0,0,0,0,0,0,0,0,0,0,0,0,0,0,0,0,0,0,0]}],[{"header":{"parameterUnit":"kt","parameterCategory":2,"dx":1,"dy":1,"la1":30.253999710083008,"la2":30.299108505249023,"lo1":-89.0895004272461,"lo2":-89.04439544677734,"nx":28,"ny":28,"refTime":"2022-10-21T21:00:00:Z","depth":"4","parameterNumber":3,"parameterNumberName":"V-component_of_CURRENTS"},"data":[0.0088,0.0038,-0.0004,-0.0103,-0.0151,-0.0274,-0.0333,-0.0308,-0.0315,-0.0222,-0.0118,-0.0032,0.0178,0.0151,0.0406,0.0448,0.0819,0.0746,0.0746,0.1436,0.1475,0.1509,0.1372,0,0,0,0,0,0.0086,0.0049,-0.0016,-0.0081,-0.0191,-0.0225,-0.0312,-0.03,-0.0231,-0.0239,-0.0141,-0.004,0.0182,0.03,0.0392,0.0515,0.0995,0.0624,0.1206,0.1461,0.1503,0.1355,0,0,0,0,0,0,0.0068,0.0027,-0.0017,-0.0054,-0.014,-0.023,-0.0217,-0.0239,-0.0203,-0.0051,-0.007,0.0154,0.037,0.0555,0.0701,0.0865,0.0965,0.112,0.1178,0.1221,0.1045,0.0764,0.0487,0,0,0,0,0,0.0058,0.0053,-0.0015,-0.0052,-0.0071,-0.0154,-0.0143,-0.0119,-0.0056,0.005,0.0106,0.0315,0.047,0.0802,0.0965,0.1187,0.1721,0.1625,0.1654,0.1801,0.1643,0.1611,0.1618,0.1665,0.167,0.1674,0.1676,0,0.0072,0.0043,-0.0031,-0.0061,-0.0059,-0.0042,-0.005,0.0027,0.0057,0.0215,0.0248,0.0538,0.0737,0.0986,0.1339,0.1614,0.1649,0.1733,0.1889,0.1711,0.167,0.1665,0.166,0.171,0.1708,0.1705,0.1702,0,0.0076,0.0051,-0.0029,-0.0075,-0.0078,-0.0073,-0.0015,0.0015,0.0173,0.0318,0.0443,0.0767,0.1001,0.1361,0.178,0.187,0.2034,0.1986,0.2173,0.2141,0.1733,0.1713,0.1767,0.1754,0.1744,0.1735,0.1727,0,0.009,0.0028,0.0,-0.0026,-0.0082,-0.0057,-0.0001,0.0058,0.0249,0.0322,0.0675,0.082,0.139,0.1629,0.1875,0.198,0.2198,0.207,0.2031,0.2336,0.2314,0.2332,0.2308,0.2541,0.2541,0.2541,0.2541,0,0.0159,0.006,0.0011,-0.0012,-0.0052,-0.0026,0.0001,0.0158,0.0223,0.0529,0.0645,0.1042,0.1322,0.16,0.1918,0.1962,0.2244,0.231,0.2052,0.202,0.2322,0.2298,0.254,0.254,0.254,0.254,0.254,0,0.0198,0.0153,0.0093,0.0019,0.001,0.0013,0.0088,0.013,0.0362,0.0474,0.0776,0.1006,0.1391,0.1501,0.1902,0.1837,0.1982,0.2109,0.2112,0.176,0.1638,0.1886,0.2043,0.204,0.2037,0.2034,0.2031,0,0.025,0.0186,0.0211,0.0134,0.01,0.0173,0.0186,0.0277,0.042,0.0576,0.086,0.1049,0.1205,0.1389,0.1602,0.181,0.1945,0.185,0.197,0.1971,0.1634,0.1706,0.1962,0.1988,0.1993,0.1997,0.2,0,0.0322,0.0309,0.0306,0.027,0.0306,0.0299,0.0341,0.041,0.0468,0.0646,0.0785,0.103,0.1222,0.13,0.1463,0.1652,0.1866,0.1695,0.17,0.1702,0.2076,0.1695,0.1683,0.193,0.1936,0.1941,0.197,0,0.0384,0.0368,0.0351,0.0355,0.0369,0.0357,0.0431,0.0482,0.0579,0.0664,0.0835,0.1016,0.1184,0.1245,0.133,0.1549,0.149,0.1506,0.1521,0.1622,0.1605,0.1629,0.1325,0.1323,0.1322,0.1321,0,0,0.0445,0.0434,0.0491,0.0471,0.0476,0.0564,0.0542,0.0591,0.0681,0.0737,0.0786,0.1,0.1086,0.1239,0.1319,0.1304,0.133,0.1347,0.1541,0.1565,0.1588,0.158,0.1604,0.1319,0.1318,0.1318,0.1317,0,0.0478,0.0507,0.0495,0.0506,0.0553,0.0588,0.0596,0.0669,0.0719,0.0776,0.0855,0.0999,0.1038,0.1157,0.1206,0.1274,0.1295,0.127,0.139,0.1525,0.155,0.1574,0.1571,0.1594,0.1314,0.1314,0.1314,0,0.0532,0.0562,0.0566,0.0599,0.0626,0.0623,0.0702,0.073,0.0747,0.0828,0.0873,0.0952,0.1011,0.1089,0.1121,0.1127,0.1283,0.121,0.1216,0.1246,0.1386,0.1414,0.1439,0.1124,0.1124,0.1124,0,0,0.0555,0.056,0.0615,0.0611,0.0623,0.0687,0.0709,0.0754,0.0804,0.0827,0.0885,0.0948,0.1,0.1048,0.1067,0.1135,0.1167,0.1189,0.1198,0.1205,0.1239,0.1379,0.1405,0.1122,0.1122,0.1122,0,0,0.0567,0.0623,0.0651,0.0653,0.0683,0.074,0.0746,0.0796,0.0841,0.0862,0.092,0.0933,0.0987,0.1007,0.0981,0.1109,0.1069,0.1074,0.1123,0.1134,0.1143,0.118,0.1008,0,0,0,0,0,0.0627,0.0613,0.0637,0.0647,0.0703,0.0723,0.0733,0.0795,0.0842,0.0835,0.09,0.0918,0.1017,0.0995,0.1001,0.1072,0.1102,0.1105,0.1109,0.1182,0.1194,0.1204,0,0,0,0,0,0,0.0631,0.0638,0.0639,0.0692,0.0707,0.0724,0.0785,0.08,0.0843,0.0851,0.0908,0.0919,0.0949,0.0993,0.0998,0.1066,0.1006,0.1103,0.1106,0.1109,0.1186,0.1196,0.1204,0,0,0,0,0,0.0634,0.0641,0.071,0.0694,0.0707,0.0787,0.0786,0.0799,0.0831,0.0887,0.09,0.0881,0.0947,0.0956,0.0996,0.1064,0.1002,0.1004,0.1105,0.1107,0.111,0.1191,0,0,0,0,0,0,0.0637,0.0648,0.0715,0.0723,0.0709,0.0787,0.0798,0.0798,0.0865,0.0879,0.086,0.0865,0.0945,0.0953,0.0959,0.1065,0.0999,0.1001,0.1003,0.1107,0.1109,0.111,0,0,0,0,0,0,0.0646,0.0653,0.0719,0.0734,0.0743,0.0787,0.0797,0.0811,0.0865,0.0833,0.0841,0.0861,0.0939,0.095,0.0955,0.0975,0.0997,0.0999,0.1,0.1001,0.1108,0.111,0,0,0,0,0,0,0.0651,0.0657,0.0732,0.0739,0.0747,0.0831,0.0801,0.0854,0.0883,0.0828,0.0888,0.0891,0.0935,0.0942,0.0952,0.0969,0.0974,0.0997,0.0999,0.0999,0.1,0,0,0,0,0,0,0,0.0655,0.0591,0.0678,0.0743,0.075,0.0794,0.0795,0.0796,0.0884,0.0886,0.0888,0.089,0.0986,0.0988,0.0991,0.0965,0,0,0.0997,0.0998,0,0,0,0,0,0,0,0,0.0591,0.0591,0.0678,0.068,0.0682,0.0794,0.0795,0.0796,0.0884,0.0886,0.0887,0.0889,0.0987,0.0989,0.099,0,0,0,0,0,0,0,0,0,0,0,0,0,0,0,0.0678,0.068,0,0.0794,0.0795,0.0796,0.0884,0.0886,0.0887,0.0888,0.0987,0.0989,0.099,0,0,0,0,0,0,0,0,0,0,0,0,0,0,0,0,0,0,0,0,0,0,0,0,0,0,0,0,0,0,0,0,0,0,0,0,0,0,0,0,0,0,0,0,0,0,0,0,0,0,0,0,0,0,0,0,0,0,0,0,0,0,0,0,0,0,0,0,0]}]]]